カタログに戻る

STARLINK-34447

運用中通信VLEO
NORAD 64710·PAYLOAD·🇺🇸 United States

打ち上げ Jun 28, 2025 から Vandenberg Space Force Base

Loading…

次のパス (今後24時間)

TLE

最新Source: CelesTrak SupGP

元期: Sep 15, 2026, 02:28 UTC

1 64710C 25142Q   26258.10326389 -.00047577  00000+0 -16550-2 0  2585
2 64710  70.0012 195.3217 0003129 271.2494   1.4808 15.29603875    10

AllMySatでSTARLINK-34447をリアルタイム追跡

Download on the App Store